Location: Nitra
(0.0000°N, 18.0833°E)
Time: 11:45:05
(UTC+02:00)

Oscar 19 - Pass Details

Date: 14 June 2023
Orbit: 773 x 788 km, 98.9° (Epoch: 28 September)

Event Time Altitude Azimuth Distance (km) Brightness Sun altitude
Rises 05:04:36 0° 359° (N) 3,234 14.2 -23.6°
Reaches altitude 10° 05:07:01 10° 352° (N) 2,308 13.3 -23.0°
Enters shadow 05:11:42 41° 285° (WNW) 1,099 11.0 -22.0°
